Regional Weather Roundup
Issued by NWS

Home | Current Version | Previous Version | Graphics & Text | Print | Product List | Glossary On
Versions: 1 2 3 4 5 6 7 8 9 10 11 12 13 14 15 16 17 18 19 20 21 22 23 24 25 26 27 28 29 30 31 32 33 34 35 36 37 38 39 40 41 42 43 44 45 46 47 48 49 50
000
ASUS43 KIND 302159
RWRIN

WEATHER ROUNDUP FOR INDIANA
NATIONAL WEATHER SERVICE INDIANAPOLIS IN
600 PM EDT SAT AUG 30 2014

NOTE: "FAIR" INDICATES FEW OR NO CLOUDS BELOW 12,000 FEET WITH NO
SIGNIFICANT WEATHER AND/OR OBSTRUCTIONS TO VISIBILITY.

* - STATION DOES NOT REPORT WEATHER SUCH AS PRECIPITATION OR FOG.

+ - STATION NOT QUALITY CONTROLLED BY THE NATIONAL WEATHER SERVICE.
    USE DATA WITH CAUTION...ESPECIALLY DEWPOINT AND RELATIVE
    HUMIDITY OBSERVATIONS.

INZ001>003-010>013-019-020-302300-
NORTHWEST INDIANA

CITY           SKY/WX    TMP DP  RH WIND       PRES   REMARKS
GARY /AIRPORT/ LGT RAIN  79  72  78 S12G23    29.85R
KNOX *+        CLOUDY    79  69  71 W9        29.88R
MONTICELLO +   PTSUNNY   81  72  74 SW13      29.89S
VALPARAISO     PTSUNNY   78  69  73 SW10      29.88R

$$

LMZ046-743>745-302300-
SOUTHERN LAKE MICHIGAN

STATION/POSITION TIME  TEMP WIND        PRES
                       AIR  DIR/SP/G
                 (UTC) (F)  (DEG/KT/KT) (MB)
MICHIGAN CITY    2100   80  190/ 14/ 18   N/A

$$

INZ004-005-014>016-021>024-302300-
NORTH CENTRAL INDIANA

CITY           SKY/WX    TMP DP  RH WIND       PRES   REMARKS
ELKHART        PTSUNNY   73  68  83 SW9       29.89
GOSHEN         PTSUNNY   83  69  62 SW17G26   29.91R THUNDER
SOUTH BEND     LGT RAIN  77  71  82 S7        29.89R

$$

INZ006>009-017-018-025>027-302300-
NORTHEAST INDIANA

CITY           SKY/WX    TMP DP  RH WIND       PRES   REMARKS
ANGOLA *+      MOSUNNY   82  75  78 SW14      29.90R
FORT WAYNE     PTSUNNY   79  70  74 S14       29.93S

$$

INZ028-029-035-036-043>045-051>053-302300-
WEST CENTRAL INDIANA

CITY           SKY/WX    TMP DP  RH WIND       PRES   REMARKS
GREENCASTLE +  CLOUDY    75  70  83 S5        29.98S
LAFAYETTE      PTSUNNY   81  70  69 SW13G23   29.90S
TERRE HAUTE    CLOUDY    78  70  76 S12       29.96F

$$

INZ030>032-037>040-046>048-054>057-064-065-302300-
CENTRAL INDIANA

CITY           SKY/WX    TMP DP  RH WIND       PRES   REMARKS
COLUMBUS       CLOUDY    77  73  88 S12       29.99F
FRANKFORT +    CLOUDY    78  70  75 S13G18    29.95S
INDIANAPOLIS   CLOUDY    78  69  73 S14       29.96S
-EAGLE CREEK   CLOUDY    78  68  71 SW13G18   29.96S
KOKOMO *+      PTSUNNY   79  70  73 SW16      29.93S
MT COMFORT *+  CLOUDY    77  73  88 S9        29.98F
SHELBYVILLE    CLOUDY    78  71  79 S13       29.98F

$$

INZ033-034-041-042-049-050-058-059-302300-
EAST CENTRAL INDIANA

CITY           SKY/WX    TMP DP  RH WIND       PRES   REMARKS
MUNCIE         CLOUDY    78  69  73 S13G20    29.96S

$$

INZ060-061-067>069-081>083-085>088-302300-
SOUTHWEST INDIANA

CITY           SKY/WX    TMP DP  RH WIND       PRES   REMARKS
EVANSVILLE     LGT RAIN  74  71  91 S8        30.01F FOG

$$

INZ062-063-066-070>080-084-089>092-302300-
SOUTH CENTRAL AND SOUTHEAST INDIANA

CITY           SKY/WX    TMP DP  RH WIND       PRES   REMARKS
BLOOMINGTON    CLOUDY    76  70  82 S12       30.00S

$$




USA.gov is the U.S. government's official web portal to all federal, state and local government web resources and services.